Wind_Speed
4 4 5 4 4 4 6 7 7 8 10 9 8 8 9 10 10 10 12 13 14 14 14 14 14 13 12 11 11 10 10 8 7 7 7 6 6 5 5 4 4 4 4
5 5 6 6 5 5 7 8 8 8 10 10 10 10 9 11 11 12 12 13 14 14 14 14 14 13 12 11 11 10 9 8 8 7 7 7 6 5 4 3 3 3 2
6 6 7 7 7 7 9 10 9 9 11 11 11 11 11 12 13 13 13 14 14 14 13 13 13 12 12 11 10 9 9 9 8 7 6 6 5 4 4 3 2 2 2
6 7 8 8 8 10 11 11 10 11 11 10 11 11 12 12 13 14 14 14 14 13 13 13 12 12 11 10 9 9 8 8 7 7 6 5 4 4 3 2 2 2 3
8 8 8 9 10 11 12 11 11 11 11 11 11 12 12 13 13 14 15 14 14 13 12 12 12 11 10 9 8 8 7 7 6 5 5 4 4 3 3 3 2 2 2
9 9 9 11 11 11 11 11 11 10 11 11 12 12 12 12 13 14 15 14 14 13 14 13 12 10 9 8 8 8 7 6 5 4 4 4 3 3 3 2 2 2 1
10 10 10 11 11 11 11 11 11 11 11 11 11 11 12 12 13 13 14 13 12 13 12 11 10 9 8 8 7 7 7 6 4 4 3 3 2 2 2 3 2 2 1
10 10 11 10 11 11 11 11 12 11 11 12 12 12 11 12 12 12 13 13 12 12 11 10 9 8 8 7 6 6 5 5 4 3 3 2 2 2 2 1 1 1 1
10 11 11 11 12 11 12 12 12 12 12 12 12 12 12 12 12 12 12 11 11 10 9 9 9 8 7 6 6 6 5 4 3 2 1 1 2 2 1 0 0 1 1
9 10 11 12 12 12 12 12 12 12 12 12 12 12 12 12 12 12 11 10 9 9 8 8 8 7 6 6 6 5 4 3 2 1 1 1 0 0 0 1 1 2 3
11 11 11 12 12 11 12 11 11 11 12 12 12 11 11 12 12 11 10 10 9 9 7 7 7 6 5 5 4 4 3 2 1 0 1 1 1 1 2 2 3 3 4
11 11 11 12 12 11 11 11 11 11 11 11 11 11 11 11 11 10 9 8 8 7 6 6 6 6 5 4 4 3 2 1 0 1 2 3 2 2 3 4 4 4 5
11 10 11 11 11 11 10 11 11 10 10 10 10 10 10 10 10 9 8 7 6 5 5 6 5 5 5 4 4 3 2 1 1 2 2 4 4 4 4 5 5 5 5
10 10 10 10 11 10 10 10 10 10 9 9 9 9 9 9 8 8 7 6 5 5 5 5 4 4 4 3 2 2 1 2 2 3 4 4 4 4 5 6 6 6 7
9 9 9 9 10 10 10 9 9 9 9 9 9 8 8 8 7 7 6 6 5 4 3 3 3 3 3 2 1 1 1 2 3 4 5 5 6 6 6 7 7 7 8
8 8 9 9 9 9 9 9 8 8 8 8 8 7 7 7 6 5 5 5 4 4 3 3 2 2 1 1 0 1 2 3 4 5 6 6 6 7 7 8 8 8 8
8 8 8 8 8 8 8 8 8 8 8 7 7 7 6 6 6 4 4 4 4 3 3 2 2 1 0 1 1 2 3 4 6 6 7 7 7 8 8 9 9 9 10
8 7 7 7 7 8 8 8 8 7 8 7 7 6 6 5 5 5 4 3 3 3 2 1 0 0 1 1 2 3 4 5 6 7 7 7 8 8 9 9 10 10 10
7 7 7 6 6 7 7 7 7 7 7 7 6 6 6 5 4 4 3 3 2 2 1 0 1 1 2 2 3 4 5 5 6 7 7 7 9 10 10 10 10 11 11
7 7 7 7 6 6 6 6 6 5 5 6 6 5 4 4 3 3 3 3 2 2 1 0 1 2 2 3 4 5 5 6 7 8 8 9 10 10 11 11 11 11 11
6 6 6 6 6 5 5 5 5 5 5 6 5 4 3 3 3 2 2 2 2 1 1 1 2 2 3 3 4 5 6 7 8 8 9 9 10 11 11 11 12 12 12
6 5 5 5 5 5 5 5 5 5 5 4 3 3 2 2 2 2 2 2 1 0 1 2 3 3 4 5 5 6 7 8 9 9 10 10 11 11 11 12 12 12 13
4 4 4 4 4 5 5 5 5 4 3 3 2 2 2 1 1 2 3 2 0 1 2 3 4 5 5 6 6 7 8 9 10 11 11 11 11 12 12 12 13 13 13
3 3 3 3 4 4 4 5 4 4 3 3 2 2 2 1 1 1 1 0 1 2 3 4 5 6 6 7 8 8 10 11 11 12 12 12 12 12 12 13 13 14 14
1 2 2 3 3 3 3 3 3 3 3 2 2 1 1 0 0 0 1 1 2 2 3 5 6 7 8 9 9 10 11 12 12 12 12 12 12 13 13 14 14 14 14
0 1 1 1 2 2 2 2 2 2 2 2 2 2 2 1 1 1 1 2 3 4 5 6 7 8 9 10 11 11 12 13 13 13 13 13 13 14 14 15 15 15 15
Wind_Direction
103 102 100 92 102 119 117 116 120 123 120 119 122 123 123 122 120 121 125 128 129 132 133 133 137 134 130 126 129 133 138 139 137 143 143 143 141 142 147 151 145 142 139
103 105 98 89 93 116 125 125 122 121 117 118 122 120 120 123 122 122 125 129 131 132 132 132 133 129 127 127 127 127 134 138 136 131 131 135 138 141 148 149 151 138 139
104 106 100 91 96 112 122 125 122 123 120 120 121 118 117 120 119 117 123 128 129 131 130 132 132 130 129 127 125 125 132 139 139 130 132 137 135 135 137 142 138 141 142
112 108 103 99 104 109 115 119 119 119 118 119 121 120 117 117 118 117 125 127 129 130 130 133 133 132 124 121 125 127 130 136 134 131 137 140 141 145 155 156 143 151 147
115 111 108 108 109 113 115 114 114 114 117 119 118 117 116 116 118 122 125 126 128 127 130 134 133 134 124 121 122 124 127 128 128 136 139 140 137 137 149 145 149 150 154
111 114 113 111 114 116 119 116 116 114 117 119 120 118 116 120 121 124 127 128 128 128 127 131 133 135 127 121 119 120 121 123 128 130 134 136 129 125 131 147 145 142 143
111 115 118 118 119 119 118 121 119 114 116 120 121 120 118 120 122 124 128 131 129 128 128 131 134 134 127 124 123 124 119 120 122 131 132 140 134 123 126 153 140 133 148
116 117 121 123 123 121 121 121 121 117 117 118 119 122 120 121 123 125 128 132 133 130 128 129 132 133 130 126 122 121 120 121 125 125 123 130 128 124 123 133 133 141 177
118 119 121 123 125 124 123 122 121 119 119 119 120 120 122 124 123 125 127 130 130 129 129 130 131 133 131 127 123 122 122 121 121 115 111 106 110 104 114 216 220 207 214
115 119 122 119 121 118 118 120 123 121 121 122 123 121 123 125 124 124 127 128 130 128 126 129 131 130 129 128 129 132 133 131 117 102 40 21 36 50 351 284 286 270 253
109 112 117 116 116 115 114 115 118 119 122 125 124 124 125 125 126 126 126 128 127 126 126 133 136 129 124 126 129 131 130 135 127 46 345 335 314 303 295 301 305 293 274
109 111 112 113 115 115 115 113 113 118 119 121 124 126 127 127 128 128 128 128 127 126 127 132 137 133 124 127 128 128 116 113 83 333 337 342 331 320 307 305 302 298 289
108 109 110 113 115 116 117 116 114 114 117 119 125 130 132 130 130 131 129 129 131 127 128 134 133 135 130 120 116 113 89 52 9 354 337 333 324 316 313 311 303 296 290
103 105 107 112 116 116 117 117 117 116 117 119 122 130 135 134 134 138 139 135 131 126 127 129 128 127 120 113 104 77 40 18 352 339 330 325 319 316 313 311 305 294 291
100 105 109 114 118 118 117 116 114 116 119 120 120 126 132 132 131 139 142 139 137 135 131 133 137 145 130 110 96 59 356 337 332 325 320 319 315 309 307 302 301 296 295
99 107 114 117 121 122 121 120 119 119 116 118 118 118 122 124 124 129 129 133 144 146 144 142 160 153 142 148 301 320 327 321 318 316 313 315 313 310 308 309 306 303 300
102 108 116 120 125 126 124 123 124 124 120 119 120 116 117 122 125 119 120 135 134 139 144 138 150 148 161 266 285 305 316 320 317 313 312 312 312 310 311 312 307 303 301
99 107 111 122 128 129 127 124 127 129 128 126 124 119 119 124 129 125 114 124 136 133 135 127 112 290 299 295 299 304 308 316 317 315 315 310 309 309 309 310 307 303 300
99 103 105 120 127 128 125 122 125 131 137 134 126 119 120 126 135 139 132 131 136 132 124 71 329 309 321 316 310 311 315 316 318 314 308 306 305 304 305 306 305 300 298
95 101 109 116 119 123 122 124 127 129 138 135 128 127 131 134 136 139 135 130 132 123 108 359 320 309 319 325 322 321 322 317 313 312 308 308 308 307 308 304 303 301 298
93 99 110 115 118 118 120 125 126 128 134 135 135 138 144 155 165 168 152 146 143 127 27 347 339 329 322 321 319 319 320 316 314 314 312 311 311 310 310 308 306 303 300
94 98 107 111 114 112 111 121 124 125 130 122 126 128 146 160 181 189 172 174 179 166 5 355 340 328 321 316 314 315 317 314 311 313 313 311 310 309 309 306 304 305 302
101 104 111 113 109 110 108 110 124 121 121 123 114 114 139 152 165 185 178 164 90 19 346 336 332 326 320 317 317 318 315 314 315 314 314 311 309 309 308 305 305 304 303
109 110 114 117 117 115 111 108 94 92 99 102 93 105 127 115 120 181 166 262 316 324 330 331 328 326 322 317 316 314 313 311 312 314 312 311 310 312 312 307 306 304 301
99 102 118 123 117 117 110 98 85 79 76 67 59 68 74 356 18 163 88 353 322 327 338 338 334 328 322 317 315 315 315 311 312 312 313 313 312 311 311 310 308 306 303
242 141 155 138 113 101 94 82 61 42 28 27 38 33 14 356 351 337 356 347 334 328 325 322 322 324 324 322 320 316 316 314 312 312 313 313 312 312 309 307 308 306 305
Height
5871 5870 5869 5868 5867 5865 5864 5864 5865 5865 5866 5867 5867 5868 5869 5869 5870 5871 5871 5872 5874 5875 5876 5878 5879 5880 5882 5883 5884 5885 5886 5887 5888 5889 5889 5890 5891 5891 5892 5892 5892 5892 5892
5871 5870 5869 5868 5866 5864 5864 5865 5866 5867 5867 5868 5869 5869 5870 5870 5871 5872 5873 5874 5875 5877 5878 5880 5881 5882 5884 5885 5886 5887 5888 5888 5889 5890 5890 5890 5891 5892 5893 5893 5893 5893 5893
5872 5871 5869 5868 5865 5863 5864 5866 5868 5868 5869 5870 5870 5871 5871 5872 5873 5874 5875 5876 5878 5879 5880 5881 5883 5884 5886 5887 5887 5888 5889 5890 5890 5890 5891 5891 5892 5893 5893 5894 5894 5894 5894
5872 5871 5871 5869 5867 5866 5867 5868 5869 5870 5871 5871 5872 5873 5873 5874 5875 5875 5876 5878 5880 5881 5882 5883 5884 5886 5887 5888 5889 5890 5890 5891 5891 5892 5892 5892 5893 5893 5894 5894 5894 5894 5894
5873 5872 5872 5872 5871 5871 5871 5871 5872 5872 5873 5873 5874 5874 5875 5876 5877 5878 5879 5880 5882 5883 5883 5885 5886 5888 5889 5890 5890 5891 5891 5892 5893 5893 5893 5893 5894 5894 5893 5894 5895 5895 5895
5874 5874 5873 5874 5874 5874 5874 5874 5875 5875 5875 5875 5876 5877 5877 5878 5879 5880 5881 5882 5884 5885 5885 5887 5888 5889 5890 5891 5892 5892 5893 5893 5894 5894 5894 5894 5895 5895 5895 5895 5895 5895 5895
5875 5875 5875 5875 5876 5876 5876 5876 5877 5877 5877 5877 5878 5879 5880 5881 5881 5883 5884 5885 5886 5887 5888 5889 5890 5891 5892 5893 5893 5894 5894 5895 5895 5895 5895 5896 5895 5896 5896 5895 5895 5895 5896
5876 5876 5877 5877 5877 5878 5878 5878 5879 5879 5879 5880 5880 5881 5882 5883 5884 5885 5886 5887 5888 5889 5890 5891 5892 5892 5893 5894 5894 5895 5895 5896 5896 5896 5896 5896 5896 5896 5896 5896 5896 5896 5895
5878 5878 5878 5879 5879 5880 5880 5880 5881 5881 5882 5882 5882 5883 5884 5885 5886 5887 5888 5889 5890 5891 5892 5892 5893 5894 5894 5895 5896 5896 5897 5897 5897 5897 5897 5897 5897 5896 5896 5896 5896 5896 5895
5879 5880 5880 5880 5881 5882 5882 5883 5883 5883 5884 5884 5885 5886 5886 5887 5888 5889 5890 5891 5892 5892 5893 5894 5894 5895 5895 5896 5897 5897 5897 5898 5898 5897 5897 5897 5897 5897 5896 5896 5896 5895 5895
5881 5882 5882 5882 5883 5884 5884 5885 5885 5886 5886 5887 5887 5888 5888 5889 5890 5891 5892 5893 5893 5894 5894 5895 5895 5896 5896 5897 5897 5898 5898 5898 5898 5898 5898 5897 5897 5896 5896 5896 5895 5895 5894
5884 5884 5884 5884 5885 5886 5886 5887 5887 5888 5888 5889 5889 5889 5890 5891 5892 5893 5893 5894 5894 5895 5895 5896 5896 5897 5897 5897 5898 5898 5898 5898 5898 5898 5898 5897 5897 5896 5896 5895 5895 5894 5894
5885 5886 5886 5886 5887 5888 5888 5889 5889 5890 5890 5890 5891 5891 5892 5893 5893 5894 5895 5895 5896 5896 5896 5896 5897 5898 5898 5898 5898 5899 5899 5898 5898 5898 5898 5897 5896 5896 5895 5894 5894 5893 5893
5887 5888 5888 5888 5889 5890 5890 5890 5891 5891 5892 5892 5893 5893 5893 5894 5895 5895 5896 5896 5897 5897 5897 5898 5898 5898 5899 5899 5899 5899 5899 5899 5898 5898 5897 5897 5896 5895 5894 5894 5893 5892 5892
5889 5890 5890 5890 5891 5891 5892 5892 5892 5893 5893 5894 5894 5894 5895 5895 5896 5896 5896 5897 5898 5898 5898 5899 5899 5899 5899 5899 5899 5899 5899 5899 5898 5898 5897 5896 5896 5895 5894 5893 5892 5891 5891
5891 5891 5891 5892 5892 5893 5893 5894 5894 5894 5894 5895 5895 5895 5896 5896 5897 5897 5897 5897 5898 5899 5899 5899 5899 5899 5899 5900 5899 5899 5899 5898 5898 5897 5897 5896 5895 5894 5893 5892 5891 5890 5889
5893 5893 5893 5894 5894 5894 5895 5895 5895 5895 5896 5896 5896 5896 5897 5897 5897 5898 5898 5898 5899 5899 5899 5899 5900 5900 5899 5899 5899 5899 5899 5898 5898 5897 5896 5895 5894 5893 5892 5891 5890 5889 5888
5895 5895 5895 5895 5895 5896 5896 5896 5897 5897 5897 5897 5897 5897 5898 5898 5898 5899 5899 5899 5899 5899 5900 5900 5900 5900 5899 5899 5899 5899 5899 5898 5897 5896 5895 5894 5893 5892 5891 5889 5888 5887 5886
5897 5897 5897 5897 5897 5897 5897 5897 5898 5898 5898 5898 5898 5898 5899 5899 5899 5899 5900 5900 5900 5900 5900 5900 5900 5900 5899 5899 5899 5898 5898 5897 5896 5895 5894 5893 5891 5890 5889 5888 5886 5885 5884
5898 5898 5898 5898 5898 5898 5898 5898 5899 5899 5899 5899 5899 5899 5899 5899 5900 5900 5900 5900 5900 5900 5900 5900 5900 5900 5899 5899 5898 5898 5897 5896 5895 5893 5892 5891 5890 5889 5887 5886 5884 5883 5882
5900 5899 5899 5899 5899 5899 5899 5899 5899 5899 5899 5899 5899 5899 5900 5900 5900 5900 5900 5901 5901 5901 5900 5900 5900 5899 5899 5898 5898 5897 5896 5895 5894 5892 5891 5890 5888 5887 5885 5884 5882 5881 5880
5901 5901 5901 5900 5900 5900 5900 5900 5900 5900 5900 5900 5899 5899 5899 5899 5899 5900 5900 5900 5901 5901 5900 5900 5899 5899 5898 5897 5897 5896 5895 5894 5892 5891 5890 5888 5887 5885 5883 5882 5880 5879 5877
5902 5902 5902 5902 5901 5901 5901 5901 5901 5901 5900 5900 5900 5899 5899 5899 5900 5900 5900 5900 5900 5900 5900 5900 5899 5898 5898 5897 5896 5895 5894 5892 5891 5890 5888 5886 5884 5883 5881 5880 5878 5876 5875
5903 5903 5903 5903 5903 5902 5902 5902 5902 5901 5901 5900 5900 5900 5900 5900 5900 5900 5900 5900 5900 5900 5900 5899 5898 5898 5897 5896 5894 5893 5892 5890 5889 5888 5886 5884 5882 5880 5879 5877 5876 5874 5872
5904 5904 5904 5903 5903 5903 5903 5902 5902 5902 5901 5901 5900 5900 5900 5899 5899 5899 5899 5900 5900 5899 5899 5898 5897 5896 5895 5894 5893 5891 5890 5888 5886 5885 5883 5881 5880 5878 5876 5874 5873 5871 5869
5905 5904 5904 5904 5904 5903 5903 5903 5902 5902 5901 5901 5900 5900 5899 5899 5899 5899 5899 5899 5899 5898 5898 5897 5896 5895 5894 5892 5891 5890 5888 5886 5884 5882 5881 5879 5877 5875 5873 5872 5870 5868 5866